Flag for Japan Weather past 2 weeks in Himeji, Japan

Now
75 °F

Rain showers. Fog.


Feels Like: 74 °F
Forecast: 73 / 80 °F
Wind: 5 mph from Southeast

Location: Kansai International Airport

Current Time: Sep 1, 2015 at 4:58:57 AM

Latest Report: Sep 1, 2015 at 4:30 AM


Visibility: 4 mi

Pressure: 29.89 "Hg

Humidity: 94%

Dew point: 73 °F

Location of HimejiLocation

Historic Weather in Himeji — Graph

°F

Himeji temperature yesterday

Maximum temperature yesterday: 79 °F (at 10:00 AM)
Minimum temperature yesterday: 75 °F (at 1:00 AM)
Average temperature yesterday: 77 °F

Past Weeks' High & Low Weather Summary

 TemperatureHumidityPressure
High88 °F (Aug 18, 3:30 PM)100% (Aug 17, 3:00 AM)29.95 "Hg (Aug 17, 3:00 AM)
Low73 °F (Aug 18, 3:30 AM)46% (Aug 28, 2:00 PM)29.36 "Hg (Aug 25, 3:30 PM)
Average80 °F81%29.74 "Hg
* Reported Aug 17 3:00 AM — Sep 1 3:30 AM, Himeji, Weather by CustomWeather, © 2015

Note: Actual official high and low records may vary slightly from our data, if they occured in-between our weather recording intervals... More about our weather records

Advertising

Himeji weather history for previous 24 hours

 ConditionsComfort  
Time TempWeatherWind HumidityBarometerVisibility
3:30 AM
Tue, Sep 1
75 °FRain showers. Fog.5 mph100%29.92 "Hg4 mi
3:00 AM75 °FRain showers. Fog.2 mph100%29.92 "Hg3 mi
2:30 AM75 °FRain showers. Fog.3 mph100%29.92 "Hg3 mi
2:00 AM75 °FRain showers. Fog.3 mph94%29.92 "Hg4 mi
1:30 AM75 °FRain showers. Passing clouds.1 mph94%29.92 "Hg4 mi
1:04 AM75 °FRain showers. Passing clouds.2 mph94%29.92 "HgN/A
1:00 AM75 °FSprinkles. Passing clouds.2 mph94%29.92 "HgN/A
12:30 AM77 °FSprinkles. Partly cloudy.1 mph89%29.92 "HgN/A
12:00 AM77 °FSprinkles. Passing clouds.2 mph89%29.92 "HgN/A
11:30 PM
Mon, Aug 31
77 °FSprinkles. Passing clouds.5 mph89%29.92 "HgN/A
11:00 PM77 °FSprinkles. Passing clouds.3 mph89%29.92 "HgN/A
10:30 PM77 °FScattered showers. Passing clouds.5 mph89%29.92 "HgN/A
10:00 PM77 °FSprinkles. Partly cloudy.5 mph89%29.92 "HgN/A
9:30 PM77 °FOvercast.3 mph89%29.92 "HgN/A
9:00 PM77 °FScattered showers. Mostly cloudy.3 mph89%29.92 "HgN/A
8:30 PM77 °FPassing clouds.6 mph89%29.92 "HgN/A
8:00 PM77 °FPassing clouds.10 mph89%29.92 "HgN/A
7:30 PM77 °FPassing clouds.9 mph89%29.92 "HgN/A
7:00 PM77 °FMostly cloudy.10 mph89%29.89 "HgN/A
6:30 PM77 °FPartly cloudy.9 mph89%29.89 "HgN/A
6:00 PM77 °FBroken clouds.9 mph83%29.89 "HgN/A
5:30 PM79 °FLight rain. Broken clouds.8 mph79%29.89 "HgN/A
5:00 PM77 °FLight rain. Partly sunny.12 mph83%29.89 "HgN/A
4:30 PM77 °FLight rain. Overcast.9 mph83%29.92 "HgN/A
4:00 PM77 °FLight rain. More clouds than sun.10 mph83%29.92 "HgN/A
3:30 PM77 °FLight rain. Mostly cloudy.12 mph83%29.92 "HgN/A
3:00 PM77 °FMore clouds than sun.14 mph79%29.89 "HgN/A
2:30 PM79 °FLight rain. More clouds than sun.13 mph74%29.92 "HgN/A
2:00 PM79 °FLight rain. Broken clouds.10 mph84%29.92 "HgN/A
1:30 PM79 °FLight rain. Broken clouds.10 mph84%29.92 "HgN/A
1:00 PM79 °FLight rain. Partly sunny.10 mph84%29.95 "HgN/A
12:30 PM77 °FLight rain. Partly sunny.9 mph89%29.95 "HgN/A
12:04 PM77 °FSprinkles. Broken clouds.9 mph89%29.95 "Hg5 mi
11:50 AM79 °FRain showers. Broken clouds.6 mph84%29.95 "Hg4 mi
11:30 AM79 °FScattered showers. Mostly cloudy.8 mph84%29.92 "HgN/A
11:00 AM79 °FScattered showers. Mostly cloudy.8 mph84%29.95 "HgN/A
10:30 AM79 °FScattered showers. More clouds than sun.8 mph84%29.95 "HgN/A
10:00 AM79 °FBroken clouds.8 mph89%29.95 "HgN/A
9:30 AM77 °FBroken clouds.7 mph89%29.95 "HgN/A
9:00 AM75 °FLight rain. Broken clouds.12 mph94%29.92 "HgN/A
8:30 AM77 °FLight rain. Broken clouds.2 mph89%29.95 "HgN/A
8:00 AM77 °FLight rain. Broken clouds.6 mph89%29.95 "HgN/A
7:30 AM77 °FLight rain. Broken clouds.6 mph89%29.92 "HgN/A
7:00 AM77 °FLight rain. Broken clouds.3 mph89%29.95 "HgN/A
6:30 AM75 °FLight rain. Broken clouds.2 mph94%29.92 "HgN/A
6:00 AM77 °FLight rain. Broken clouds.3 mph94%29.92 "HgN/A
5:30 AM77 °FLight rain. Broken clouds.3 mph94%29.92 "HgN/A
5:00 AM77 °FSprinkles. Partly cloudy.2 mph89%29.92 "HgN/A
4:30 AM75 °FSprinkles. Passing clouds.6 mph94%29.92 "HgN/A
4:00 AM75 °FPartly cloudy.3 mph89%29.89 "HgN/A
Weather by CustomWeather, © 2015

See weather overviewHow to use our weather pages